E0050 Weather Reports


time (UTC)temp
F
wind
direction
speed
knots
gust
knots
rain 1hr
in
rain 24hr
in
rain mn
in
humidity
%
barometer
mb
20260506194538 60 300 0.9 3.5 0.00 0.34 0.01 74 1011.9
20260506193107 61 283 1.7 7.0 0.00 0.34 0.01 74 1011.5
20260506191537 60 275 3.5 8.7 0.00 0.34 0.01 73 1011.3
20260506190005 60 262 4.3 10.4 0.00 0.34 0.01 73 1011.1
20260506184602 61 250 5.2 9.6 0.00 0.34 0.01 73 1010.9
20260506183027 61 267 5.2 9.6 0.00 0.34 0.01 72 1010.8
20260506181522 62 248 3.5 9.6 0.00 0.34 0.01 72 1010.7
20260506174550 62 256 4.3 11.3 0.00 0.34 0.01 71 1010.5
20260506173017 63 222 4.3 8.7 0.00 0.34 0.01 71 1010.2
20260506171513 63 208 5.2 10.4 0.00 0.34 0.01 70 1010.1
20260506170056 63 240 4.3 10.4 0.00 0.34 0.01 70 1010.2
20260506164539 63 259 6.1 11.3 0.00 0.34 0.01 70 1010.1
20260506163014 63 228 6.1 13.0 0.00 0.34 0.01 70 1010.2
20260506161503 63 246 5.2 11.3 0.00 0.34 0.01 70 1010.3
20260506160031 63 223 6.1 11.3 0.00 0.34 0.01 68 1010.4
20260506154527 64 261 5.2 9.6 0.00 0.34 0.01 68 1010.3
20260506153107 64 227 6.1 12.2 0.00 0.34 0.01 68 1010.3
20260506151532 63 296 5.2 12.2 0.00 0.34 0.01 68 1010.2
20260506144535 64 248 6.1 13.0 0.00 0.34 0.01 67 1010.5
20260506143004 64 264 7.8 13.9 0.00 0.34 0.01 67 1010.5
20260506141600 64 262 7.0 13.0 0.00 0.34 0.01 67 1010.5
20260506140029 65 222 7.8 13.9 0.00 0.34 0.01 67 1010.6
20260506134524 64 221 7.8 14.8 0.00 0.34 0.01 67 1010.7
20260506133055 64 220 6.1 12.2 0.00 0.34 0.01 68 1010.8
20260506131551 64 230 8.7 13.9 0.00 0.34 0.01 67 1010.9
20260506130020 64 253 7.0 11.3 0.00 0.34 0.01 68 1010.9
20260506124515 64 248 7.8 13.9 0.00 0.34 0.01 69 1011.0
20260506123046 63 229 7.0 13.9 0.00 0.34 0.01 70 1011.0
20260506121544 63 239 7.8 15.6 0.00 0.34 0.01 71 1011.0
20260506120007 63 229 7.0 18.2 0.00 0.34 0.01 70 1010.8
20260506114504 64 219 9.6 16.5 0.00 0.34 0.01 69 1010.8
20260506113035 64 259 7.8 15.6 0.00 0.34 0.01 70 1010.8
20260506111536 63 192 8.7 15.6 0.00 0.34 0.01 69 1010.9
20260506110105 63 267 9.6 13.9 0.00 0.34 0.01 70 1010.9
20260506104553 63 248 7.0 13.0 0.00 0.34 0.01 71 1010.9
20260506103021 63 257 7.0 14.8 0.00 0.34 0.01 72 1011.0
20260506101518 63 250 6.1 12.2 0.00 0.34 0.01 73 1011.0
20260506100048 62 259 7.0 13.9 0.00 0.34 0.01 74 1010.8
20260506094523 62 232 7.8 12.2 0.00 0.34 0.01 74 1010.8
20260506093056 62 229 7.8 11.3 0.00 0.34 0.01 74 1010.8
20260506091550 61 233 5.2 10.4 0.00 0.34 0.01 76 1010.6
20260506090022 61 262 5.2 9.6 0.00 0.34 0.01 80 1010.4
20260506084513 60 235 4.3 11.3 0.00 0.34 0.01 83 1010.4
20260506083043 60 217 4.3 11.3 0.00 0.34 0.01 85 1010.2
20260506081540 59 243 5.2 10.4 0.00 0.34 0.01 87 1010.2
20260506073038 57 227 4.3 9.6 0.00 0.34 0.01 91 1010.0
20260506071532 56 302 3.5 7.8 0.00 0.34 0.01 92 1009.8
20260506070109 56 237 2.6 7.0 0.00 0.34 0.01 92 1009.8
20260506061600 55 254 1.7 5.2 0.00 0.34 0.01 92 1009.3
20260506044552 53 13 0.0 0.0 0.01 0.34 0.01 92 1008.5
20260506043017 53 13 0.0 0.0 0.00 0.33 0.00 91 1008.4
20260506041510 53 13 0.0 0.0 0.00 0.33 0.00 91 1008.5
20260506040056 53 13 0.0 0.0 0.00 0.33 0.00 91 1008.4
20260506034538 53 13 0.0 0.0 0.00 0.33 0.00 91 1008.5
20260506033006 53 14 0.0 0.0 0.00 0.33 0.00 91 1008.5
20260506031555 53 14 0.0 0.9 0.00 0.33 0.00 91 1008.5
20260506030013 53 12 0.0 0.9 0.00 0.33 0.00 90 1008.4
20260506024515 53 12 0.9 2.6 0.00 0.33 0.00 91 1008.2
20260506023037 54 153 0.0 0.0 0.00 0.35 0.33 90 1008.0
20260506021534 54 153 0.0 0.0 0.00 0.35 0.33 90 1007.8
20260506020001 54 153 0.0 0.0 0.00 0.35 0.33 90 1007.5
20260506014600 54 153 0.9 2.6 0.00 0.35 0.33 90 1007.4
20260506013028 54 51 0.9 6.1 0.01 0.43 0.33 90 1007.1
20260506011504 55 43 0.9 5.2 0.18 0.43 0.33 89 1007.4
20260506010038 55 13 1.7 4.3 0.30 0.43 0.33 89 1007.7
20260506004551 56 24 0.9 4.3 0.32 0.43 0.33 89 1008.2
20260506003017 58 350 4.3 11.3 0.31 0.42 0.31 88 1008.3
20260506001534 59 309 0.9 2.6 0.15 0.25 0.15 88 1009.1
20260506000002 59 26 0.0 2.6 0.03 0.13 0.03 88 1008.5
20260505234521 59 77 0.9 6.1 0.01 0.11 0.01 87 1008.3
20260505233105 60 135 0.9 4.3 0.01 0.19 0.01 87 1008.3
20260505231509 60 43 2.6 6.1 0.00 0.18 0.00 86 1008.7
20260505230039 60 78 1.7 5.2 0.00 0.18 0.00 86 1009.1
20260505224557 60 105 0.0 3.5 0.00 0.18 0.00 86 1009.2
20260505223024 60 71 1.7 5.2 0.00 0.31 0.00 86 1008.9
20260505221541 60 92 1.7 6.1 0.00 0.31 0.00 86 1009.1
20260505220011 60 71 1.7 7.8 0.00 0.31 0.00 85 1009.2
20260505214508 60 81 1.7 7.0 0.00 0.31 0.00 85 1009.5
20260505213038 61 69 2.6 7.8 0.00 0.31 0.00 84 1009.8
20260505211610 61 105 1.7 6.1 0.00 0.31 0.00 84 1010.1
20260505210028 61 101 1.7 7.0 0.00 0.31 0.00 84 1010.3
20260505204545 61 65 0.9 3.5 0.00 0.31 0.00 84 1010.3
20260505203010 61 134 0.0 3.5 0.00 0.31 0.00 83 1010.4
20260505201531 61 92 0.0 4.3 0.00 0.31 0.00 83 1010.1